VK3AS Weather Reports


Display with metric or nautical units.
time (UTC)temp
F
wind
direction
speed
MPH
gust
MPH
rain 1hr
in
rain 24hr
in
rain mn
in
humidity
%
barometer
mb
20260510154528 42 136 0.0 2.0 0.00 0.00 0.00 94 1033.7
20260510153037 41 126 0.0 2.0 0.00 0.00 0.00 93 1033.7
20260510151529 42 125 0.0 2.0 0.00 0.00 0.00 94 1033.7
20260510150027 41 125 0.0 1.0 0.00 0.00 0.00 94 1033.7
20260510144526 41 123 0.0 2.0 0.00 0.00 0.00 94 1033.7
20260510143028 41 86 0.0 2.0 0.00 0.00 0.00 94 1033.8
20260510141530 41 78 0.0 2.0 0.00 0.00 0.00 94 1033.8
20260510140028 40 57 0.0 2.0 0.00 0.00 0.00 94 1033.8
20260510134529 40 22 0.0 0.0 0.00 0.00 0.00 93 1033.9
20260510133028 40 22 0.0 0.0 0.00 0.00 0.00 93 1034.0
20260510131530 40 22 0.0 0.0 0.00 0.00 0.00 94 1034.0
20260510130030 40 17 0.0 0.0 0.00 0.00 0.00 93 1034.0
20260510124527 40 17 0.0 0.0 0.00 0.00 0.00 92 1034.1
20260510123012 40 17 0.0 0.0 0.00 0.00 0.00 93 1034.2
20260510121512 40 17 0.0 0.0 0.00 0.00 0.00 92 1034.2
20260510120010 40 17 0.0 0.0 0.00 0.00 0.00 92 1034.3
20260510114512 41 17 0.0 0.0 0.00 0.00 0.00 92 1034.1
20260510113011 41 17 0.0 0.0 0.00 0.00 0.00 91 1034.1
20260510111512 41 17 0.0 0.0 0.00 0.00 0.00 91 1034.0
20260510110019 42 17 0.0 0.0 0.00 0.00 0.00 90 1034.0
20260510104512 42 17 0.0 2.0 0.00 0.00 0.00 90 1034.0
20260510103013 43 17 0.0 0.0 0.00 0.00 0.00 89 1033.9
20260510101511 43 17 0.0 1.0 0.00 0.00 0.00 89 1033.8
20260510100013 44 17 0.0 2.0 0.00 0.00 0.00 89 1033.8
20260510094513 44 25 0.0 2.0 0.00 0.00 0.00 88 1033.8
20260510093013 44 25 0.0 2.0 0.00 0.00 0.00 89 1033.8
20260510091511 45 18 0.0 1.0 0.00 0.00 0.00 88 1033.6
20260510090011 45 22 0.0 2.0 0.00 0.00 0.00 88 1033.4
20260510084510 46 23 0.0 0.0 0.00 0.00 0.00 86 1033.3
20260510083015 46 23 0.0 2.0 0.00 0.00 0.00 85 1033.2
20260510081514 47 23 0.0 2.0 0.00 0.00 0.00 85 1033.1
20260510080032 48 9 0.0 2.0 0.00 0.00 0.00 84 1032.9
20260510074513 49 360 0.0 2.0 0.00 0.00 0.00 82 1032.7
20260510073025 50 360 0.0 2.0 0.00 0.00 0.00 81 1032.7
20260510071518 51 360 0.0 2.0 0.00 0.00 0.00 80 1032.6
20260510070014 52 360 0.0 3.0 0.00 0.00 0.00 78 1032.5
20260510064512 53 360 0.0 2.0 0.00 0.00 0.00 77 1032.5
20260510063017 54 360 0.0 3.0 0.00 0.00 0.00 75 1032.5
20260510061512 55 360 1.0 4.0 0.00 0.00 0.00 74 1032.4
20260510060032 56 360 1.0 4.0 0.00 0.00 0.00 73 1032.3
20260510054519 57 360 1.0 3.0 0.00 0.00 0.00 71 1032.2
20260510053016 58 360 1.0 3.0 0.00 0.00 0.00 70 1032.1
20260510051516 59 360 1.0 4.0 0.00 0.00 0.00 69 1032.0
20260510050018 59 360 0.0 2.0 0.00 0.00 0.00 68 1032.0
20260510044519 60 360 0.0 3.0 0.00 0.00 0.00 68 1031.9
20260510043018 60 360 1.0 3.0 0.00 0.00 0.00 66 1031.9
20260510041522 60 360 1.0 2.0 0.00 0.00 0.00 67 1031.9
20260510040016 60 360 0.0 4.0 0.00 0.00 0.00 66 1031.9
20260510034517 60 360 1.0 2.0 0.00 0.00 0.00 66 1032.0
20260510033016 60 360 0.0 2.0 0.00 0.00 0.00 66 1032.1
20260510031523 60 360 1.0 2.0 0.00 0.00 0.00 65 1032.1
20260510030016 59 360 1.0 3.0 0.00 0.00 0.00 69 1032.4
20260510024522 58 360 1.0 3.0 0.00 0.00 0.00 68 1032.5
20260510023019 58 360 1.0 3.0 0.00 0.00 0.00 69 1032.7
20260510021548 58 360 1.0 5.0 0.00 0.00 0.00 71 1032.8
20260510020019 57 360 1.0 3.0 0.00 0.00 0.00 71 1033.0
20260510014531 56 360 1.0 4.0 0.00 0.00 0.00 72 1033.1
20260510013020 55 360 1.0 3.0 0.00 0.00 0.00 75 1033.2
20260510011520 55 360 1.0 5.0 0.00 0.00 0.00 77 1033.3
20260510010032 54 360 1.0 4.0 0.00 0.00 0.00 78 1033.3
20260510004518 54 360 2.0 4.0 0.00 0.00 0.00 79 1033.2
20260510003023 54 360 1.0 6.0 0.00 0.00 0.00 80 1033.2
20260510001518 53 360 1.0 4.0 0.00 0.00 0.00 80 1033.2
20260510000020 52 360 2.0 6.0 0.00 0.00 0.00 82 1033.1
20260509234523 51 360 2.0 6.0 0.00 0.00 0.00 84 1033.0
20260509233026 51 360 2.0 6.0 0.00 0.00 0.00 85 1033.1
20260509231518 51 360 1.0 5.0 0.00 0.00 0.00 87 1033.1
20260509230034 50 360 1.0 5.0 0.00 0.00 0.00 88 1032.9
20260509224523 48 360 1.0 4.0 0.00 0.00 0.00 91 1032.7
20260509223020 47 360 2.0 5.0 0.00 0.00 0.00 93 1032.6
20260509221520 46 360 1.0 4.0 0.00 0.00 0.00 94 1032.4
20260509220022 45 360 1.0 3.0 0.00 0.00 0.00 94 1032.1
20260509214520 44 360 0.0 2.0 0.00 0.00 0.00 94 1032.2
20260509213022 44 360 0.0 0.0 0.00 0.00 0.00 92 1032.1
20260509211519 44 360 0.0 2.0 0.00 0.00 0.00 92 1032.0
20260509210021 45 360 0.0 2.0 0.00 0.00 0.00 90 1031.9
20260509204521 46 360 0.0 1.0 0.00 0.00 0.00 91 1031.7
20260509203026 46 360 0.0 2.0 0.00 0.00 0.00 92 1031.5
20260509201522 47 360 0.0 2.0 0.00 0.00 0.00 92 1031.5
20260509200024 47 360 0.0 2.0 0.00 0.00 0.00 93 1031.4
20260509194531 47 360 1.0 3.0 0.00 0.00 0.00 93 1031.3
20260509193024 47 360 1.0 2.0 0.00 0.00 0.00 92 1030.9
20260509191523 47 360 0.0 2.0 0.00 0.00 0.00 92 1030.6
20260509190025 47 360 1.0 4.0 0.00 0.00 0.00 92 1030.4
20260509184527 47 360 0.0 2.0 0.00 0.00 0.00 92 1030.2
20260509183024 48 360 0.0 3.0 0.00 0.00 0.00 92 1030.3
20260509181521 48 360 1.0 3.0 0.00 0.00 0.00 92 1030.2
20260509180025 48 360 0.0 4.0 0.00 0.00 0.00 92 1030.2
20260509174522 48 360 1.0 4.0 0.00 0.00 0.00 92 1030.2
20260509173030 48 360 1.0 6.0 0.00 0.00 0.00 92 1030.2
20260509171533 48 360 1.0 3.0 0.00 0.00 0.00 92 1030.3
20260509170025 48 360 1.0 5.0 0.00 0.00 0.00 91 1030.4
20260509164524 49 360 1.0 3.0 0.00 0.00 0.00 91 1030.5
20260509163027 49 184 1.0 5.0 0.00 0.00 0.00 92 1030.5
20260509161522 49 360 1.0 3.0 0.00 0.00 0.00 92 1030.5
20260509160025 49 360 0.0 5.0 0.00 0.00 0.00 92 1030.6